SCP
0 0 0 -0 -0 -0 0 0 0 0 0 0 0 0 0 0 0 0 0 0 0 0 0 0 0 0 0 0 0 0 0 0 0 0 0 0 0 0 0 0 0 0 0 0
0 0 0 0 0 0 0 0 0 0 0 0 0 0 0 0 0 0 0 0 0 0 0 0 0 0 0 0 0 0 0 0 0 0 0 0 0 0 0 0 0 0 0 0
0 0 0 0 0 0 -0 0 0 0 0 0 0 0 0 0 0 0 0 0 0 0 0 0 0 0 0 0 0 0 0 0 0 0 0 0 0 0 0 0 0 0 0 0
0 0 0 0 0 0 -0 0 0 0 0 0 0 0 0 0 0 0 0 0 0 0 0 0 0 0 0 0 0 0 0 0 0 0 0 0 0 0 0 0 0 0 0 0
0 0 0 0 0 0 0 0 0 0 0 0 0 0 0 0 0 0 0 0 0 0 0 0 0 0 0 0 0 0 0 0 0 0 0 0 0 0 0 0 0 0 0 0
0 0 0 0 0 0 0 0 0 0 0 0 0 0 0 0 0 0 0 0 0 0 0 0 0 0 0 0 0 0 0 0 0 0 0 0 0 0 0 0 0 0 0 0
0 0 0 0 0 0 0 0 0 0 0 0 0 0 0 0 0 0 0 0 0 0 0 0 0 0 0 0 0 0 0 0 0 0 0 0 0 0 0 0 0 0 0 0
0 0 0 0 0 0 0 0 0 0 0 0 0 0 0 0 0 0 0 0 0 0 0 0 0 0 0 0 0 0 0 0 0 0 0 0 0 0 0 0 0 0 0 0
0 0 0 0 0 0 0 0 0 0 0 0 0 0 0 0 0 0 0 0 0 0 0 0 0 0 0 0 0 0 0 0 0 0 0 0 0 0 0 0 0 0 0 0
0 0 0 0 0 0 0 0 0 0 0 0 0 0 0 0 0 0 0 0 0 0 0 0 0 0 0 0 0 0 0 0 0 0 0 0 0 0 0 0 0 0 0 0
0 0 0 0 0 0 0 0 0 0 0 0 0 0 0 0 0 0 0 0 0 0 0 0 0 0 0 0 0 0 0 0 0 0 0 0 0 0 0 0 0 0 0 0
0 0 0 0 0 0 0 0 0 0 0 0 0 0 0 0 0 0 0 0 0 0 0 0 0 0 0 0 0 0 0 0 0 0 0 0 0 0 0 0 0 0 0 0
0 0 0 0 0 0 0 0 0 0 0 0 0 0 0 0 0 0 0 0 0 0 0 0 0 0 0 0 0 0 0 0 0 0 0 0 0 0 0 0 0 0 0 0
0 0 0 0 0 0 0 0 0 0 0 0 0 0 0 0 0 0 0 0 0 0 0 0 0 0 0 0 0 0 0 0 0 0 0 0 0 0 0 0 0 0 0 0
0 0 0 0 0 0 0 0 0 0 0 0 0 0 0 0 0 0 0 0 0 0 0 0 0 0 0 0 0 0 0 0 0 0 0 0 0 0 0 0 0 0 0 0
0 0 0 0 0 0 0 0 0 0 0 0 0 0 0 0 0 0 0 0 0 0 0 0 0 0 0 0 0 0 0 0 0 0 0 0 0 0 0 0 0 0 0 0
0 0 0 0 0 0 0 0 0 0 0 0 0 0 0 0 0 0 0 0 0 0 0 0 0 0 0 0 0 0 0 0 0 0 0 0 0 0 0 0 0 0 0 0
0 0 0 0 0 0 0 0 0 0 0 0 0 0 0 0 0 0 0 0 0 0 0 0 0 0 0 0 0 0 0 0 0 0 0 0 0 0 0 0 0 0 0 0
0 0 0 0 0 0 0 0 0 0 0 0 0 0 0 0 0 0 0 0 0 0 0 0 0 0 0 0 0 0 0 0 0 0 0 0 0 0 0 0 0 0 0 0
0 0 0 0 0 0 0 0 0 0 0 0 0 0 0 0 0 0 0 0 0 0 0 0 0 0 0 0 0 0 0 0 0 0 0 0 0 0 0 0 0 0 0 0
0 0 0 0 0 0 0 0 0 0 0 0 0 0 0 0 0 0 0 0 0 0 0 0 0 0 0 0 0 0 0 0 0 0 0 0 0 0 0 0 0 0 0 0
0 0 0 0 0 0 0 0 0 0 0 0 0 0 0 0 0 0 0 0 0 0 0 0 0 0 0 0 0 0 0 0 0 0 0 0 0 0 0 0 0 0 0 0
0 0 0 0 0 0 0 0 0 0 0 0 0 0 0 0 0 0 0 0 0 0 0 0 0 0 0 0 0 0 0 0 0 0 0 0 0 0 0 0 0 0 0 0
0 0 0 0 0 0 0 0 0 0 0 0 0 0 0 0 0 0 0 0 0 0 0 0 0 0 0 0 0 0 0 0 0 0 0 0 0 0 0 0 0 0 0 0
0 0 0 0 0 0 0 0 0 0 0 0 0 0 0 0 0 0 0 0 0 0 0 0 0 0 0 0 0 0 0 0 0 0 0 0 0 0 0 0 0 0 0 0
0 0 0 0 0 0 0 0 0 0 0 0 0 0 0 0 0 0 0 0 0 0 0 0 0 0 0 0 0 0 0 0 0 0 0 0 0 0 0 0 0 0 0 0
0 0 0 0 0 0 0 0 0 0 0 0 0 0 0 0 0 0 0 0 0 0 0 0 0 0 0 0 0 0 0 0 0 0 0 0 0 0 0 0 0 0 0 0
Wind_Speed_500mb
40 44 48 49 47 37 21 2 3 2 1 4 4 4 4 2 4 11 8 8 6 3 2 3 3 4 4 5 6 5 4 4 1 2 5 5 2 5 4 2 3 9 11 16
37 40 43 45 45 40 30 9 4 6 5 3 3 1 4 4 3 6 4 5 4 3 4 3 3 5 4 5 4 8 10 1 1 3 6 5 8 6 5 3 1 15 14 11
34 36 39 41 40 36 26 8 2 7 9 10 4 4 4 6 8 7 9 7 6 6 3 4 7 7 4 4 6 9 10 5 7 8 8 2 7 12 16 11 7 22 26 41
31 32 34 36 36 31 17 10 5 4 4 7 5 1 2 8 8 5 4 4 4 8 6 4 5 5 5 4 8 6 2 6 8 14 16 11 16 20 19 21 29 17 33 30
29 29 30 31 32 27 13 6 3 4 2 5 2 2 7 10 5 7 5 8 9 5 6 7 10 9 6 6 6 4 2 3 3 8 9 13 20 22 21 26 22 21 23 33
29 25 26 27 28 27 12 12 7 3 2 2 3 2 3 8 13 3 3 14 10 6 3 5 4 8 7 6 8 8 6 8 5 6 5 13 21 12 9 5 8 13 19 32
30 25 21 22 22 21 16 15 6 2 1 2 2 3 4 6 10 10 9 15 7 8 7 10 11 9 4 5 4 4 10 9 4 6 5 7 7 6 3 7 16 22 28 19
31 29 21 16 15 14 13 12 9 4 3 4 6 2 1 4 6 6 9 7 10 13 7 4 6 4 4 9 12 9 6 7 5 5 6 17 6 8 7 7 20 23 9 26
34 30 27 19 13 10 9 9 8 5 4 7 4 2 1 5 5 5 4 10 11 6 4 3 6 8 3 8 6 8 9 4 5 6 6 8 5 11 5 7 9 13 18 31
38 32 30 25 18 12 10 10 7 6 7 8 9 7 5 7 5 3 3 8 7 6 4 5 7 6 1 7 9 10 7 5 14 9 11 11 8 14 12 6 11 18 26 36
40 35 32 29 25 18 13 14 14 10 8 17 13 14 12 8 9 6 10 8 6 4 7 6 6 6 5 5 2 6 10 11 6 5 8 9 20 11 9 13 17 24 31 36
39 35 35 33 29 24 17 16 16 16 16 15 16 18 25 21 15 10 19 3 6 8 6 4 5 5 6 5 5 4 8 8 5 14 6 4 24 21 21 29 27 32 31 39
38 37 38 37 32 28 23 19 18 16 17 31 30 26 33 37 34 17 7 8 11 9 9 10 4 5 6 8 9 7 9 11 6 5 6 18 16 21 28 26 24 34 38 41
37 39 41 41 36 33 27 25 23 20 10 8 7 10 12 19 38 36 28 16 13 13 12 5 4 4 10 4 1 7 3 20 10 10 22 22 13 11 14 19 30 35 35 43
42 38 38 38 34 34 32 32 32 28 18 6 12 18 18 15 23 35 27 22 21 14 8 5 5 7 9 3 3 9 19 11 10 9 11 10 15 13 16 27 31 32 38 47
44 42 39 38 41 41 40 25 42 42 37 8 6 9 13 22 26 24 22 23 18 13 8 5 6 9 8 7 6 11 24 28 26 9 12 14 18 21 23 25 29 32 40 46
37 45 39 43 49 55 56 14 13 33 44 10 8 6 11 29 32 26 24 21 10 9 8 7 6 8 12 5 7 10 21 25 24 23 22 20 13 13 22 24 28 32 40 43
38 37 38 41 37 52 56 61 27 26 35 12 5 4 8 32 12 12 17 14 12 9 6 6 7 9 7 9 26 15 14 18 23 23 21 17 19 20 18 23 28 36 42 46
36 31 28 30 32 37 44 50 42 55 15 9 10 8 8 32 13 12 12 12 7 8 10 8 15 7 11 17 18 20 26 21 11 10 7 7 12 13 20 25 32 40 44 45
23 19 13 10 16 34 41 30 30 26 16 12 11 11 9 26 12 8 13 7 6 8 8 15 8 8 36 30 21 16 13 17 19 13 6 5 6 16 23 27 36 40 43 45
18 17 15 16 36 43 25 16 17 21 11 19 18 30 12 22 14 9 9 8 10 7 8 10 6 7 11 14 22 18 25 19 13 12 8 3 10 16 22 30 38 42 40 43
24 9 15 31 14 8 8 9 12 12 14 21 25 25 18 21 18 9 14 7 6 8 21 7 6 8 18 26 27 24 22 18 16 16 9 3 8 17 26 36 39 37 38 44
20 16 11 11 12 9 14 17 10 11 18 24 27 20 24 16 13 9 6 10 8 22 8 7 8 7 30 35 33 29 24 22 21 16 7 1 8 19 28 39 36 34 37 44
21 18 10 10 9 10 11 7 11 13 21 47 49 33 12 11 10 9 10 5 12 9 6 10 7 29 39 41 35 31 30 27 21 14 7 9 15 27 34 40 32 32 39 46
12 12 10 12 14 12 10 17 5 16 46 62 39 19 7 6 7 5 7 10 10 11 8 6 14 39 49 43 37 33 30 26 19 11 8 11 18 28 37 36 30 32 39 46
9 11 8 13 7 11 9 14 13 29 51 50 17 10 9 9 7 10 13 14 12 7 7 14 29 48 46 41 36 31 25 22 15 11 11 13 22 27 39 31 28 33 39 47
13 13 27 18 9 12 12 17 25 42 47 12 10 14 12 12 9 12 8 9 6 12 24 31 44 47 45 38 28 25 25 19 17 17 14 18 23 33 36 29 27 33 39 47
Wind_Direction_500mb
349 353 353 354 355 2 6 49 122 2 264 46 41 127 156 116 82 68 77 87 95 122 91 72 108 131 45 12 125 82 63 121 102 34 316 290 249 149 121 167 231 246 282 289
345 350 353 355 356 2 6 2 342 15 164 147 113 193 110 92 107 49 95 106 68 63 111 132 129 110 65 44 110 159 172 56 9 169 158 178 239 193 147 121 203 245 275 272
340 347 350 353 356 360 1 3 343 26 69 82 110 139 134 115 64 85 82 115 126 119 119 38 152 142 50 35 95 115 133 146 219 249 295 128 224 223 211 239 251 285 266 289
330 341 348 351 355 360 5 26 62 46 6 50 42 16 148 154 163 97 109 101 159 157 156 154 181 170 151 84 144 80 145 237 205 253 253 230 257 260 263 250 273 270 294 296
320 334 345 351 353 2 27 50 44 21 51 327 294 341 206 202 152 162 176 156 149 148 172 210 197 180 209 198 139 122 40 204 218 269 275 243 260 267 273 278 279 264 283 295
306 322 336 347 356 9 43 34 22 28 8 42 216 225 207 215 156 82 164 156 136 188 205 164 162 181 125 148 174 153 173 162 189 261 351 316 276 273 210 265 244 283 288 313
293 303 321 340 355 6 21 19 10 335 194 251 245 310 284 217 195 150 134 148 152 156 149 112 87 80 98 182 188 166 147 151 190 290 303 252 78 94 149 252 284 279 297 306
279 286 296 316 337 350 351 356 11 324 262 240 249 204 125 125 124 88 146 156 154 160 155 135 141 145 168 110 37 191 192 157 178 261 239 300 179 192 194 190 282 300 245 303
268 273 279 286 300 315 324 316 330 326 290 214 220 254 276 192 149 127 109 143 154 159 96 137 210 210 175 172 133 83 121 79 227 167 264 268 114 175 165 142 274 203 270 298
264 263 266 268 273 281 289 284 285 303 276 259 212 201 202 173 140 142 170 178 180 165 148 188 210 210 253 210 196 176 167 175 225 219 246 274 187 156 154 283 307 310 296 295
260 258 256 256 259 261 264 267 262 265 270 276 248 231 212 191 187 185 161 153 193 127 178 195 183 211 175 219 184 196 192 175 193 172 229 266 163 139 203 278 285 300 303 308
262 255 249 249 249 249 252 261 260 255 262 266 278 261 239 238 236 205 183 239 162 163 121 188 143 182 179 187 230 174 212 214 189 203 239 159 195 240 268 287 285 299 303 318
256 251 250 246 243 241 242 248 255 262 278 286 271 269 249 234 226 212 200 221 195 192 160 142 120 221 166 187 223 202 211 181 225 196 205 242 254 279 290 287 296 313 318 317
249 247 241 241 236 230 234 243 246 244 261 275 281 245 247 233 224 220 222 234 199 176 162 132 153 211 201 211 359 241 204 163 200 246 274 278 274 300 300 301 314 318 317 317
245 247 238 234 231 227 243 242 242 233 226 281 291 298 251 238 213 200 214 222 215 182 158 168 188 147 171 162 235 235 189 188 188 229 218 229 276 306 305 308 315 321 316 316
239 240 233 239 228 227 233 244 250 232 228 255 281 259 215 196 178 186 188 181 184 180 166 181 201 191 190 200 233 242 208 218 225 233 265 257 285 299 310 305 321 323 322 316
247 239 236 238 227 228 214 202 199 210 203 220 263 244 197 186 170 167 168 172 177 179 183 206 182 180 188 240 235 235 216 222 224 240 260 280 293 297 312 315 322 325 326 323
243 246 241 240 235 231 234 222 227 194 174 200 253 228 186 177 167 157 165 159 161 184 182 179 190 153 214 251 236 223 207 213 227 244 257 266 287 306 314 324 328 331 330 329
235 246 237 240 224 219 219 226 203 171 180 194 208 201 196 172 158 143 150 159 165 191 213 208 173 169 222 231 228 215 215 211 212 227 238 262 288 313 328 331 332 329 328 331
226 227 195 205 197 205 204 157 152 176 213 232 238 193 179 170 159 142 134 170 176 191 200 154 217 246 248 245 225 215 206 215 224 216 200 244 296 325 326 330 331 326 329 332
213 201 201 199 166 166 180 143 155 178 206 208 212 187 151 180 175 144 192 160 166 210 166 200 209 259 229 188 195 205 208 202 221 212 205 240 314 326 332 335 326 328 330 333
202 190 170 159 198 197 148 169 178 193 208 186 176 173 155 161 172 140 177 173 176 222 146 202 235 237 176 156 145 143 156 183 184 173 180 285 9 358 339 331 327 328 332 334
208 187 187 191 186 206 191 186 187 187 174 168 163 155 145 148 174 111 157 173 180 130 188 225 233 165 167 159 154 159 172 177 171 173 188 251 1 343 334 337 331 332 334 335
188 167 208 211 188 228 203 210 150 177 161 155 155 148 149 148 160 149 162 116 144 188 224 222 207 185 170 163 165 176 180 178 180 190 228 287 316 329 332 334 330 333 335 336
205 176 204 221 229 250 241 233 198 158 163 147 149 128 136 141 129 181 118 165 204 216 217 206 190 175 170 168 177 186 187 187 195 214 273 302 317 325 327 328 329 332 335 336
207 228 196 226 276 244 219 225 215 162 159 143 133 143 155 193 169 168 196 179 211 206 199 186 168 166 169 174 183 190 197 201 208 239 276 308 317 317 324 319 326 332 333 334
205 225 210 191 220 275 250 210 193 167 170 197 156 165 178 128 176 188 186 202 191 177 171 162 162 166 169 175 186 198 208 221 234 258 282 302 304 316 318 315 321 330 331 332
Wind_Speed_850mb
40 44 48 49 47 37 21 2 3 2 1 4 4 4 4 2 4 11 8 8 6 3 2 3 3 4 4 5 6 5 4 4 1 2 5 5 2 5 4 2 3 9 11 16
37 40 43 45 45 40 30 9 4 6 5 3 3 1 4 4 3 6 4 5 4 3 4 3 3 5 4 5 4 8 10 1 1 3 6 5 8 6 5 3 1 15 14 11
34 36 39 41 40 36 26 8 2 7 9 10 4 4 4 6 8 7 9 7 6 6 3 4 7 7 4 4 6 9 10 5 7 8 8 2 7 12 16 11 7 22 26 41
31 32 34 36 36 31 17 10 5 4 4 7 5 1 2 8 8 5 4 4 4 8 6 4 5 5 5 4 8 6 2 6 8 14 16 11 16 20 19 21 29 17 33 30
29 29 30 31 32 27 13 6 3 4 2 5 2 2 7 10 5 7 5 8 9 5 6 7 10 9 6 6 6 4 2 3 3 8 9 13 20 22 21 26 22 21 23 33
29 25 26 27 28 27 12 12 7 3 2 2 3 2 3 8 13 3 3 14 10 6 3 5 4 8 7 6 8 8 6 8 5 6 5 13 21 12 9 5 8 13 19 32
30 25 21 22 22 21 16 15 6 2 1 2 2 3 4 6 10 10 9 15 7 8 7 10 11 9 4 5 4 4 10 9 4 6 5 7 7 6 3 7 16 22 28 19
31 29 21 16 15 14 13 12 9 4 3 4 6 2 1 4 6 6 9 7 10 13 7 4 6 4 4 9 12 9 6 7 5 5 6 17 6 8 7 7 20 23 9 26
34 30 27 19 13 10 9 9 8 5 4 7 4 2 1 5 5 5 4 10 11 6 4 3 6 8 3 8 6 8 9 4 5 6 6 8 5 11 5 7 9 13 18 31
38 32 30 25 18 12 10 10 7 6 7 8 9 7 5 7 5 3 3 8 7 6 4 5 7 6 1 7 9 10 7 5 14 9 11 11 8 14 12 6 11 18 26 36
40 35 32 29 25 18 13 14 14 10 8 17 13 14 12 8 9 6 10 8 6 4 7 6 6 6 5 5 2 6 10 11 6 5 8 9 20 11 9 13 17 24 31 36
39 35 35 33 29 24 17 16 16 16 16 15 16 18 25 21 15 10 19 3 6 8 6 4 5 5 6 5 5 4 8 8 5 14 6 4 24 21 21 29 27 32 31 39
38 37 38 37 32 28 23 19 18 16 17 31 30 26 33 37 34 17 7 8 11 9 9 10 4 5 6 8 9 7 9 11 6 5 6 18 16 21 28 26 24 34 38 41
37 39 41 41 36 33 27 25 23 20 10 8 7 10 12 19 38 36 28 16 13 13 12 5 4 4 10 4 1 7 3 20 10 10 22 22 13 11 14 19 30 35 35 43
42 38 38 38 34 34 32 32 32 28 18 6 12 18 18 15 23 35 27 22 21 14 8 5 5 7 9 3 3 9 19 11 10 9 11 10 15 13 16 27 31 32 38 47
44 42 39 38 41 41 40 25 42 42 37 8 6 9 13 22 26 24 22 23 18 13 8 5 6 9 8 7 6 11 24 28 26 9 12 14 18 21 23 25 29 32 40 46
37 45 39 43 49 55 56 14 13 33 44 10 8 6 11 29 32 26 24 21 10 9 8 7 6 8 12 5 7 10 21 25 24 23 22 20 13 13 22 24 28 32 40 43
38 37 38 41 37 52 56 61 27 26 35 12 5 4 8 32 12 12 17 14 12 9 6 6 7 9 7 9 26 15 14 18 23 23 21 17 19 20 18 23 28 36 42 46
36 31 28 30 32 37 44 50 42 55 15 9 10 8 8 32 13 12 12 12 7 8 10 8 15 7 11 17 18 20 26 21 11 10 7 7 12 13 20 25 32 40 44 45
23 19 13 10 16 34 41 30 30 26 16 12 11 11 9 26 12 8 13 7 6 8 8 15 8 8 36 30 21 16 13 17 19 13 6 5 6 16 23 27 36 40 43 45
18 17 15 16 36 43 25 16 17 21 11 19 18 30 12 22 14 9 9 8 10 7 8 10 6 7 11 14 22 18 25 19 13 12 8 3 10 16 22 30 38 42 40 43
24 9 15 31 14 8 8 9 12 12 14 21 25 25 18 21 18 9 14 7 6 8 21 7 6 8 18 26 27 24 22 18 16 16 9 3 8 17 26 36 39 37 38 44
20 16 11 11 12 9 14 17 10 11 18 24 27 20 24 16 13 9 6 10 8 22 8 7 8 7 30 35 33 29 24 22 21 16 7 1 8 19 28 39 36 34 37 44
21 18 10 10 9 10 11 7 11 13 21 47 49 33 12 11 10 9 10 5 12 9 6 10 7 29 39 41 35 31 30 27 21 14 7 9 15 27 34 40 32 32 39 46
12 12 10 12 14 12 10 17 5 16 46 62 39 19 7 6 7 5 7 10 10 11 8 6 14 39 49 43 37 33 30 26 19 11 8 11 18 28 37 36 30 32 39 46
9 11 8 13 7 11 9 14 13 29 51 50 17 10 9 9 7 10 13 14 12 7 7 14 29 48 46 41 36 31 25 22 15 11 11 13 22 27 39 31 28 33 39 47
13 13 27 18 9 12 12 17 25 42 47 12 10 14 12 12 9 12 8 9 6 12 24 31 44 47 45 38 28 25 25 19 17 17 14 18 23 33 36 29 27 33 39 47
Wind_Direction_850mb
349 353 353 354 355 2 6 49 122 2 264 46 41 127 156 116 82 68 77 87 95 122 91 72 108 131 45 12 125 82 63 121 102 34 316 290 249 149 121 167 231 246 282 289
345 350 353 355 356 2 6 2 342 15 164 147 113 193 110 92 107 49 95 106 68 63 111 132 129 110 65 44 110 159 172 56 9 169 158 178 239 193 147 121 203 245 275 272
340 347 350 353 356 360 1 3 343 26 69 82 110 139 134 115 64 85 82 115 126 119 119 38 152 142 50 35 95 115 133 146 219 249 295 128 224 223 211 239 251 285 266 289
330 341 348 351 355 360 5 26 62 46 6 50 42 16 148 154 163 97 109 101 159 157 156 154 181 170 151 84 144 80 145 237 205 253 253 230 257 260 263 250 273 270 294 296
320 334 345 351 353 2 27 50 44 21 51 327 294 341 206 202 152 162 176 156 149 148 172 210 197 180 209 198 139 122 40 204 218 269 275 243 260 267 273 278 279 264 283 295
306 322 336 347 356 9 43 34 22 28 8 42 216 225 207 215 156 82 164 156 136 188 205 164 162 181 125 148 174 153 173 162 189 261 351 316 276 273 210 265 244 283 288 313
293 303 321 340 355 6 21 19 10 335 194 251 245 310 284 217 195 150 134 148 152 156 149 112 87 80 98 182 188 166 147 151 190 290 303 252 78 94 149 252 284 279 297 306
279 286 296 316 337 350 351 356 11 324 262 240 249 204 125 125 124 88 146 156 154 160 155 135 141 145 168 110 37 191 192 157 178 261 239 300 179 192 194 190 282 300 245 303
268 273 279 286 300 315 324 316 330 326 290 214 220 254 276 192 149 127 109 143 154 159 96 137 210 210 175 172 133 83 121 79 227 167 264 268 114 175 165 142 274 203 270 298
264 263 266 268 273 281 289 284 285 303 276 259 212 201 202 173 140 142 170 178 180 165 148 188 210 210 253 210 196 176 167 175 225 219 246 274 187 156 154 283 307 310 296 295
260 258 256 256 259 261 264 267 262 265 270 276 248 231 212 191 187 185 161 153 193 127 178 195 183 211 175 219 184 196 192 175 193 172 229 266 163 139 203 278 285 300 303 308
262 255 249 249 249 249 252 261 260 255 262 266 278 261 239 238 236 205 183 239 162 163 121 188 143 182 179 187 230 174 212 214 189 203 239 159 195 240 268 287 285 299 303 318
256 251 250 246 243 241 242 248 255 262 278 286 271 269 249 234 226 212 200 221 195 192 160 142 120 221 166 187 223 202 211 181 225 196 205 242 254 279 290 287 296 313 318 317
249 247 241 241 236 230 234 243 246 244 261 275 281 245 247 233 224 220 222 234 199 176 162 132 153 211 201 211 359 241 204 163 200 246 274 278 274 300 300 301 314 318 317 317
245 247 238 234 231 227 243 242 242 233 226 281 291 298 251 238 213 200 214 222 215 182 158 168 188 147 171 162 235 235 189 188 188 229 218 229 276 306 305 308 315 321 316 316
239 240 233 239 228 227 233 244 250 232 228 255 281 259 215 196 178 186 188 181 184 180 166 181 201 191 190 200 233 242 208 218 225 233 265 257 285 299 310 305 321 323 322 316
247 239 236 238 227 228 214 202 199 210 203 220 263 244 197 186 170 167 168 172 177 179 183 206 182 180 188 240 235 235 216 222 224 240 260 280 293 297 312 315 322 325 326 323
243 246 241 240 235 231 234 222 227 194 174 200 253 228 186 177 167 157 165 159 161 184 182 179 190 153 214 251 236 223 207 213 227 244 257 266 287 306 314 324 328 331 330 329
235 246 237 240 224 219 219 226 203 171 180 194 208 201 196 172 158 143 150 159 165 191 213 208 173 169 222 231 228 215 215 211 212 227 238 262 288 313 328 331 332 329 328 331
226 227 195 205 197 205 204 157 152 176 213 232 238 193 179 170 159 142 134 170 176 191 200 154 217 246 248 245 225 215 206 215 224 216 200 244 296 325 326 330 331 326 329 332
213 201 201 199 166 166 180 143 155 178 206 208 212 187 151 180 175 144 192 160 166 210 166 200 209 259 229 188 195 205 208 202 221 212 205 240 314 326 332 335 326 328 330 333
202 190 170 159 198 197 148 169 178 193 208 186 176 173 155 161 172 140 177 173 176 222 146 202 235 237 176 156 145 143 156 183 184 173 180 285 9 358 339 331 327 328 332 334
208 187 187 191 186 206 191 186 187 187 174 168 163 155 145 148 174 111 157 173 180 130 188 225 233 165 167 159 154 159 172 177 171 173 188 251 1 343 334 337 331 332 334 335
188 167 208 211 188 228 203 210 150 177 161 155 155 148 149 148 160 149 162 116 144 188 224 222 207 185 170 163 165 176 180 178 180 190 228 287 316 329 332 334 330 333 335 336
205 176 204 221 229 250 241 233 198 158 163 147 149 128 136 141 129 181 118 165 204 216 217 206 190 175 170 168 177 186 187 187 195 214 273 302 317 325 327 328 329 332 335 336
207 228 196 226 276 244 219 225 215 162 159 143 133 143 155 193 169 168 196 179 211 206 199 186 168 166 169 174 183 190 197 201 208 239 276 308 317 317 324 319 326 332 333 334
205 225 210 191 220 275 250 210 193 167 170 197 156 165 178 128 176 188 186 202 191 177 171 162 162 166 169 175 186 198 208 221 234 258 282 302 304 316 318 315 321 330 331 332